Home   Weather   Las Palmas   Past weeks

Flag for Spain Past Weather in Las Palmas, Canary Islands, Spain — Yesterday and Last 2 Weeks

Now
70 °F

Scattered clouds.


Feels Like: 70 °F
Forecast: 66 / 73 °F
Wind: 23 mph from North

Location: Las Palmas De Gran Canaria / Gando

Current Time: Apr 30, 2017 at 10:08:21 am

Latest Report: Apr 30, 2017 at 9:30 am


Visibility: N/A

Pressure: 30.12 "Hg

Humidity: 64%

Dew Point: 57 °F

Location of Las PalmasLocation

Past Weather in Las Palmas — Graph

°F

Las Palmas Temperature Yesterday

Maximum temperature yesterday: 75 °F (at 12:30 pm)
Minimum temperature yesterday: 68 °F (at 3:00 am)
Average temperature yesterday: 71 °F

High & Low Weather Summary for the Past Weeks

 TemperatureHumidityPressure
High93 °F (Apr 17, 4:00 pm)88% (Apr 15, 8:00 am)30.12 "Hg (Apr 15, 8:00 am)
Low63 °F (Apr 21, 7:00 am)13% (Apr 17, 8:00 am)29.77 "Hg (Apr 17, 4:00 pm)
Average72 °F65%29.94 "Hg
* Reported Apr 15 8:00 am — Apr 30 8:30 am, Las Palmas, Weather by CustomWeather, © 2017

Note: Actual official high and low records may vary slightly from our data, if they occured in-between our weather recording intervals... More about our weather records

Advertising

Las Palmas Weather History for the Previous 24 Hours

Scroll right to see more
 ConditionsComfort  
Time TempWeatherWind HumidityBarometerVisibility
8:30 am
Sun, Apr 30
68 °FScattered clouds.16 mph73%30.09 "HgN/A
8:00 am66 °FScattered clouds.14 mph73%30.09 "HgN/A
7:30 am66 °FScattered clouds.15 mph78%30.09 "HgN/A
7:00 am66 °FPassing clouds.14 mph78%30.09 "HgN/A
6:30 am66 °FPassing clouds.13 mph78%30.07 "HgN/A
6:00 am66 °FPassing clouds.15 mph78%30.07 "HgN/A
5:30 am66 °FPassing clouds.16 mph78%30.07 "HgN/A
5:00 am66 °FPassing clouds.12 mph83%30.07 "HgN/A
4:30 am66 °FPassing clouds.14 mph83%30.07 "HgN/A
4:00 am66 °FPassing clouds.12 mph83%30.07 "HgN/A
3:30 am66 °FPassing clouds.13 mph83%30.07 "HgN/A
3:00 am66 °FPassing clouds.10 mph88%30.07 "HgN/A
2:30 am68 °FPassing clouds.13 mph83%30.07 "HgN/A
2:00 am68 °FPassing clouds.10 mph83%30.07 "HgN/A
1:30 am68 °FPassing clouds.10 mph83%30.07 "HgN/A
1:00 am68 °FPassing clouds.12 mph83%30.07 "HgN/A
12:30 am68 °FPassing clouds.12 mph83%30.07 "HgN/A
12:00 am68 °FPassing clouds.15 mph83%30.07 "HgN/A
11:30 pm
Sat, Apr 29
68 °FPassing clouds.12 mph88%30.07 "HgN/A
11:00 pm68 °FPassing clouds.12 mph83%30.04 "HgN/A
10:30 pm70 °FPassing clouds.10 mph78%30.04 "HgN/A
10:00 pm70 °FPassing clouds.13 mph83%30.04 "HgN/A
9:30 pm70 °FPassing clouds.13 mph78%30.04 "HgN/A
8:30 pm72 °FScattered clouds.9 mph78%30.01 "HgN/A
8:00 pm72 °FBroken clouds.10 mph78%30.01 "HgN/A
7:30 pm72 °FBroken clouds.10 mph73%29.98 "HgN/A
7:00 pm72 °FBroken clouds.10 mph73%29.98 "HgN/A
6:30 pm72 °FBroken clouds.9 mph69%29.98 "HgN/A
6:00 pm73 °FBroken clouds.6 mph61%29.98 "HgN/A
5:30 pm72 °FBroken clouds.9 mph73%29.98 "HgN/A
5:00 pm72 °FBroken clouds.9 mph73%29.98 "HgN/A
4:30 pm72 °FBroken clouds.12 mph73%29.98 "HgN/A
4:00 pm72 °FBroken clouds.9 mph78%29.98 "Hg6 mi
3:30 pm72 °FBroken clouds.8 mph83%29.98 "Hg6 mi
3:00 pm72 °FRain. Broken clouds.8 mph88%29.98 "Hg6 mi
2:30 pm73 °FDrizzle. Broken clouds.12 mph78%29.98 "Hg6 mi
1:30 pm75 °FBroken clouds.12 mph74%29.98 "HgN/A
1:00 pm75 °FScattered clouds.13 mph74%29.98 "HgN/A
12:30 pm75 °FScattered clouds.10 mph74%29.98 "HgN/A
12:00 pm73 °FScattered clouds.10 mph78%29.98 "HgN/A
11:30 am73 °FPartly sunny.10 mph74%29.98 "HgN/A
11:00 am73 °FBroken clouds.9 mph78%29.95 "HgN/A
10:30 am73 °FBroken clouds.7 mph78%29.95 "HgN/A
10:00 am73 °FBroken clouds.3 mph78%29.95 "HgN/A
Weather by CustomWeather, © 2017

See weather overviewHow to use our weather pages